Regional Weather Roundup
Issued by NWS Sioux Falls, SD

Home | Current Version | Previous Version | Graphics & Text | Print | Product List | Glossary Off
Versions: 1 2 3 4 5 6 7 8 9 10 11 12 13 14 15 16 17 18 19 20 21 22 23 24 25 26 27 28 29 30 31 32 33 34 35 36 37 38 39 40 41 42 43 44 45 46 47 48 49 50

030
ASUS43 KFSD 072110
RWRFSD

WEATHER ROUNDUP FOR SE SOUTH DAKOTA/SW MINNESOTA/NW IOWA
NATIONAL WEATHER SERVICE SIOUX FALLS SD
300 PM CST WED DEC 07 2016

NOTE: "FAIR" INDICATES FEW OR NO CLOUDS BELOW 12,000 FEET WITH NO
SIGNIFICANT WEATHER AND OR OBSTRUCTIONS TO VISIBILITY.


SDZ038>040-050-052>070-072200-
SOUTHEAST SOUTH DAKOTA

CITY           SKY/WX    TMP DP  RH WIND       PRES   REMARKS
BROOKINGS      LGT SNOW  14   7  73 NW29G35   30.16R WCI  -7
CHAMBERLAIN    SUNNY     17   6  61 NW29G35   30.34R WCI  -3
HURON          CLOUDY    16   5  62 NW24G35   30.29R WCI  -2
MADISON        MOCLDY    16   7  67 NW28G39   30.19S WCI  -4
MITCHELL       SUNNY     18   5  57 NW26G35   30.31R WCI  -1
SIOUX FALLS    MOSUNNY   19   7  59 NW25G35   30.23R WCI   1
WINNER         FAIR      17   3  54 NW21G30   30.34R WCI   0
YANKTON        SUNNY    N/A N/A N/A W25G32    30.30R
$$

MNZ071-072-080-081-089-090-097-098-072200-
SOUTHWEST MINNESOTA

CITY           SKY/WX    TMP DP  RH WIND       PRES   REMARKS
FAIRMONT       PTSUNNY   22  11  62 W23G31    30.13R WCI   6
JACKSON        MOSUNNY   19   9  63 W28G35    30.14R WCI   1
LUVERNE        SUNNY     19   7  58 NW25G31   30.21R WCI   2
MARSHALL       PTSUNNY   18   7  62 NW32G38   30.14R WCI  -2
MONTEVIDEO     LGT SNOW  18  10  73 NW17G26   30.16R WCI   2
PIPESTONE      MOSUNNY   16   7  67 NW23G37   30.16R WCI  -2
REDWOOD FALLS  CLOUDY    20   7  57 W29G36    30.13R WCI   1
TRACY          SUNNY     20  10  65 W16G31    30.14S WCI   5
WINDOM         SUNNY     19   9  63 W30       30.12S WCI   0
WORTHINGTON    SUNNY     18   9  68 W31G37    30.15R WCI  -2
$$

IAZ001>003-012>014-020>022-031-032-NEZ013-014-SDZ071-072200-
NORTHWEST IOWA

CITY           SKY/WX    TMP DP  RH WIND       PRES   REMARKS
CHEROKEE       SUNNY     22   9  56 W21G26    30.24R WCI   7
DENISON        MOSUNNY   21   9  58 NW17G23   30.25R WCI   7
ESTHERVILLE    PTSUNNY   22  11  62 W28G36    30.15R WCI   4
LE MARS        MOSUNNY   21   7  53 NW20G30   30.28R WCI   6
ORANGE CITY    SUNNY     21  10  63 NW30G36   30.22R WCI   3
SHELDON        SUNNY     21   9  58 W28G33    30.19R WCI   3
SIOUX CITY     SUNNY     24   7  48 NW21G29   30.29R WCI   9
SPENCER        SUNNY     21   8  57 W30G44    30.18R WCI   3
STORM LAKE     SUNNY     21  10  63 NW23G30   30.20S WCI   5
$$

ABBREVIATIONS USED IN REMARKS
   TC - TEMPERATURE IN CELSIUS
  WCI - WIND CHILL INDEX
   HX - HEAT INDEX
  VSB - VISIBILITY





USA.gov is the U.S. government's official web portal to all federal, state and local government web resources and services.